EA1IDU Weather Reports


time (UTC)temp
C
wind
direction
speed
KPH
gust
KPH
rain 1hr
cm
rain 24hr
cm
rain mn
cm
humidity
%
barometer
mb
20260503050112 10 203 0.0 3.2 0.00 0.71 0.00 93 1015.0
20260503045127 10 203 0.0 3.2 0.00 0.71 0.00 93 1014.9
20260503044104 10 0.0 0.0 0.00 0.71 0.00 93 1015.0
20260503043119 10 270 0.0 3.2 0.00 0.71 0.00 92 1015.1
20260503042052 10 222 1.6 3.2 0.00 0.71 0.00 92 1015.0
20260503041047 10 217 4.8 9.7 0.00 0.71 0.00 91 1015.1
20260503040043 10 212 4.8 9.7 0.00 0.71 0.00 91 1015.0
20260503035058 10 219 4.8 9.7 0.00 0.71 0.00 91 1015.1
20260503034033 10 207 4.8 9.7 0.00 0.71 0.00 91 1015.0
20260503033029 10 194 6.4 11.3 0.00 0.71 0.00 90 1015.1
20260503032022 10 200 3.2 6.4 0.00 0.71 0.00 90 1015.1
20260503031018 10 199 4.8 6.4 0.00 0.71 0.00 90 1015.1
20260503030113 10 181 6.4 11.3 0.00 0.71 0.00 89 1015.3
20260503025107 10 194 4.8 9.7 0.00 0.71 0.00 89 1015.2
20260503024102 10 187 3.2 6.4 0.00 0.71 0.00 89 1015.2
20260503023057 10 161 4.8 6.4 0.00 0.71 0.00 89 1015.3
20260503022052 10 177 4.8 9.7 0.00 0.71 0.00 89 1015.3
20260503021047 10 170 6.4 9.7 0.00 0.71 0.00 89 1015.3
20260503020043 10 182 1.6 6.4 0.00 0.71 0.00 89 1015.3
20260503015037 10 189 6.4 9.7 0.00 0.71 0.00 89 1015.4
20260503014032 10 193 4.8 9.7 0.00 0.71 0.00 90 1015.5
20260503013027 10 177 6.4 11.3 0.00 0.71 0.00 90 1015.6
20260503012023 10 177 6.4 9.7 0.00 0.71 0.00 90 1015.7
20260503011018 10 214 4.8 6.4 0.00 0.71 0.00 90 1015.8
20260503010133 10 212 4.8 6.4 0.00 0.71 0.00 90 1015.9
20260503005108 10 205 3.2 6.4 0.00 0.71 0.00 89 1016.1
20260503004103 10 191 8.0 11.3 0.00 0.71 0.00 89 1016.2
20260503003057 10 220 3.2 6.4 0.00 0.71 0.00 89 1016.1
20260503002052 10 185 3.2 6.4 0.00 0.71 0.00 89 1016.1
20260503001048 10 210 3.2 6.4 0.00 0.71 0.00 89 1016.2
20260503000042 10 203 4.8 9.7 0.00 0.71 0.00 90 1016.2
20260502235037 10 221 1.6 3.2 0.00 0.71 0.00 90 1016.4
20260502234033 10 234 4.8 6.4 0.00 0.71 0.00 90 1016.3
20260502233028 10 217 3.2 6.4 0.00 0.71 0.00 89 1016.4
20260502232022 11 241 1.6 6.4 0.00 0.71 0.00 88 1016.3
20260502231018 11 215 3.2 6.4 0.00 0.71 0.00 87 1016.2
20260502230112 11 194 3.2 6.4 0.00 0.71 0.00 87 1016.2
20260502225108 11 190 1.6 3.2 0.00 0.71 0.00 88 1016.3
20260502224102 11 192 1.6 3.2 0.00 0.71 0.00 88 1016.2
20260502223057 11 149 1.6 6.4 0.00 0.71 0.00 88 1016.3
20260502222112 11 154 3.2 6.4 0.00 0.71 0.00 87 1016.2
20260502221047 11 136 6.4 11.3 0.00 0.71 0.00 87 1016.0
20260502215037 11 131 6.4 14.5 0.00 0.71 0.71 87 1016.2
20260502214032 11 115 6.4 12.9 0.00 0.71 0.71 88 1016.2
20260502213027 11 142 4.8 6.4 0.00 0.71 0.71 87 1016.3
20260502212022 11 119 6.4 9.7 0.00 0.71 0.71 87 1016.3
20260502211038 11 161 4.8 9.7 0.00 0.71 0.71 87 1016.4
20260502210132 11 158 4.8 9.7 0.00 0.71 0.71 87 1016.3
20260502205107 11 151 6.4 9.7 0.00 0.71 0.71 88 1016.4
20260502204102 11 140 6.4 9.7 0.00 0.71 0.71 88 1016.3
20260502203057 11 150 3.2 6.4 0.00 0.71 0.71 89 1016.2
20260502202052 11 123 0.0 3.2 0.00 0.71 0.71 89 1016.1
20260502201047 11 124 1.6 3.2 0.00 0.71 0.71 89 1016.0
20260502195037 11 130 1.6 3.2 0.00 0.71 0.71 88 1015.8
20260502194053 11 113 1.6 6.4 0.00 0.71 0.71 88 1015.8
20260502193127 11 110 3.2 6.4 0.00 0.71 0.71 88 1015.8
20260502192022 12 103 0.0 6.4 0.03 0.71 0.71 89 1015.8
20260502191017 12 135 1.6 6.4 0.05 0.71 0.71 88 1015.7
20260502190112 12 118 4.8 6.4 0.05 0.71 0.71 87 1015.6
20260502185107 12 101 1.6 6.4 0.05 0.71 0.71 88 1015.6
20260502184102 12 78 3.2 6.4 0.05 0.71 0.71 87 1015.6
20260502183058 12 205 3.2 6.4 0.05 0.71 0.71 85 1015.9
20260502182113 12 196 9.7 12.9 0.03 0.69 0.69 81 1016.0
20260502181047 12 236 0.0 3.2 0.00 0.66 0.66 79 1015.4
20260502170113 12 179 6.4 11.3 0.13 0.66 0.66 84 1016.0
20260502164103 12 212 11.3 14.5 0.13 0.56 0.56 80 1016.1
20260502163118 12 165 6.4 9.7 0.10 0.53 0.53 80 1015.9
20260502162053 12 203 1.6 6.4 0.10 0.53 0.53 79 1015.8
20260502161048 12 215 3.2 11.3 0.10 0.53 0.53 78 1015.8
20260502152023 15 210 14.5 22.5 0.00 0.46 0.46 72 1015.9
20260502151019 15 205 14.5 22.5 0.00 0.46 0.46 74 1015.9
20260502150154 15 183 14.5 22.5 0.00 0.46 0.46 74 1016.1
20260502130112 12 193 29.0 43.5 0.03 0.28 0.28 79 1018.3
20260502123057 13 178 14.5 24.1 0.10 0.23 0.23 85 1017.6
20260502122052 12 190 9.7 17.7 0.13 0.23 0.23 87 1017.6
20260502121047 12 211 9.7 17.7 0.23 0.23 0.23 87 1018.0
20260502115037 12 245 6.4 11.3 0.23 0.23 0.23 90 1018.3
20260502114032 12 247 8.0 14.5 0.23 0.23 0.23 89 1018.4
20260502113028 12 213 16.1 27.4 0.15 0.15 0.15 86 1018.6
20260502112044 13 207 20.9 33.8 0.13 0.13 0.13 81 1018.3
20260502111017 15 189 16.1 32.2 0.00 0.00 0.00 73 1017.5
20260502110113 15 204 16.1 24.1 0.00 0.00 0.00 73 1017.2
20260502105107 16 161 20.9 40.2 0.00 0.00 0.00 71 1017.3
20260502104123 16 200 16.1 25.7 0.00 0.00 0.00 71 1017.7
20260502103058 15 167 17.7 29.0 0.00 0.00 0.00 72 1018.0
20260502102053 15 174 19.3 38.6 0.00 0.00 0.00 71 1018.1
20260502101109 15 173 16.1 35.4 0.00 0.00 0.00 70 1018.4
20260502100104 15 180 16.1 24.1 0.00 0.00 0.00 70 1018.5
20260502091018 14 164 12.9 17.7 0.00 0.00 0.00 81 1018.5
20260502090114 14 172 9.7 22.5 0.00 0.00 0.00 83 1018.8
20260502071019 14 167 11.3 20.9 0.00 0.00 0.00 77 1018.8
20260502070114 14 167 12.9 24.1 0.00 0.00 0.00 77 1018.8
20260502065108 13 129 11.3 27.4 0.00 0.00 0.00 77 1018.8
20260502064104 13 119 12.9 24.1 0.00 0.00 0.00 77 1018.5
20260502063058 13 149 12.9 24.1 0.00 0.00 0.00 77 1018.6
20260502062113 13 138 11.3 22.5 0.00 0.00 0.00 76 1018.7
20260502061129 13 149 16.1 32.2 0.00 0.00 0.00 76 1018.7
20260502060044 13 174 11.3 27.4 0.00 0.00 0.00 76 1018.7
20260502055039 13 146 11.3 25.7 0.00 0.00 0.00 76 1018.5
20260502054034 13 155 16.1 25.7 0.00 0.00 0.00 75 1018.5
20260502053028 13 162 11.3 25.7 0.00 0.00 0.00 76 1018.4
20260502052023 13 127 11.3 20.9 0.00 0.00 0.00 75 1018.6
20260502051018 13 186 11.3 24.1 0.00 0.00 0.00 75 1018.6